TimePDT,TemperatureF,Dew PointF,Humidity,Sea Level PressureIn,VisibilityMPH,Wind Direction,Wind SpeedMPH,Gust SpeedMPH,PrecipitationIn,Events,Conditions,WindDirDegrees,DateUTC
12:55 AM,44.1,37.9,79,30.05,10.0,Calm,Calm,-,N/A,,Mostly Cloudy,0,2012-10-29 07:55:00
1:55 AM,42.1,37.0,82,30.06,10.0,NE,3.5,-,N/A,,Clear,50,2012-10-29 08:55:00
2:55 AM,39.9,37.9,93,30.06,10.0,Calm,Calm,-,N/A,,Clear,0,2012-10-29 09:55:00
3:55 AM,35.1,33.1,92,30.08,9.0,Calm,Calm,-,N/A,,Clear,0,2012-10-29 10:55:00
4:55 AM,33.1,30.9,92,30.10,10.0,Calm,Calm,-,N/A,,Clear,0,2012-10-29 11:55:00
5:55 AM,33.1,32.0,96,30.13,9.0,Calm,Calm,-,N/A,,Clear,0,2012-10-29 12:55:00
6:55 AM,30.0,30.0,100,30.17,10.0,Calm,Calm,-,N/A,,Clear,0,2012-10-29 13:55:00
7:55 AM,30.0,28.9,96,30.18,9.0,Calm,Calm,-,N/A,,Clear,0,2012-10-29 14:55:00
8:55 AM,39.9,36.0,86,30.19,10.0,Calm,Calm,-,N/A,,Clear,0,2012-10-29 15:55:00
9:55 AM,50.0,39.9,68,30.19,10.0,Calm,Calm,-,N/A,,Clear,0,2012-10-29 16:55:00
10:55 AM,55.0,39.9,57,30.17,10.0,Calm,Calm,-,N/A,,Clear,0,2012-10-29 17:55:00
11:55 AM,61.0,41.0,48,30.17,10.0,Calm,Calm,-,N/A,,Clear,0,2012-10-29 18:55:00
12:55 PM,64.0,41.0,43,30.14,10.0,West,10.4,-,N/A,,Clear,270,2012-10-29 19:55:00
1:55 PM,66.0,37.9,36,30.12,10.0,Variable,5.8,-,N/A,,Clear,0,2012-10-29 20:55:00
2:55 PM,66.9,27.0,22,30.11,10.0,West,9.2,-,N/A,,Clear,280,2012-10-29 21:55:00
3:55 PM,66.9,28.9,24,30.12,10.0,West,4.6,-,N/A,,Clear,260,2012-10-29 22:55:00
4:55 PM,64.9,28.9,26,30.12,10.0,West,4.6,-,N/A,,Clear,270,2012-10-29 23:55:00
5:55 PM,60.1,33.1,36,30.12,10.0,West,3.5,-,N/A,,Clear,280,2012-10-30 00:55:00
6:55 PM,53.1,32.0,45,30.16,10.0,Calm,Calm,-,N/A,,Clear,0,2012-10-30 01:55:00
7:55 PM,48.0,35.1,61,30.18,10.0,ESE,4.6,-,N/A,,Clear,120,2012-10-30 02:55:00
8:55 PM,39.9,33.1,77,30.17,10.0,Calm,Calm,-,N/A,,Clear,0,2012-10-30 03:55:00
9:55 PM,39.9,32.0,73,30.15,10.0,Calm,Calm,-,N/A,,Clear,0,2012-10-30 04:55:00
10:55 PM,35.1,30.0,82,30.14,10.0,Calm,Calm,-,N/A,,Clear,0,2012-10-30 05:55:00
11:55 PM,35.1,30.0,82,30.12,10.0,Calm,Calm,-,N/A,,Clear,0,2012-10-30 06:55:00